PARUS-T1

operational
NORAD ID: 62656 Int'l Des: NNA 2025-009 Owner: TASA/PYRAS Country: J
LEOCIRCULARRETROGRADESSO

关于 PARUS-T1

正在加载描述...

实时位置

正在加载3D地球...

即将过境

高度历史

Altitude vs Time

uPlot chart will show altitude changes over time

两行轨道根数

1 62656U 25009AZ 26061.12469967 .00016799 00000-0 57924-3 0 9992
2 62656 97.4002 144.4340 0001491 57.8036 302.3349 15.30065474 62639
Epoch: Mar 2, 2026 • Age: 25 hours

当前状态

高度 487.3 km
速度 7.63 km/s
星下点 74.36°N, 62.43°W
发射日期 Jan 14, 2025
运行时间 1.1 years
类型 other

技术详情

分类 Payload
质量 4.00 kg
干质量 4.00 kg
总质量 4.00 kg
长度 0.30 m
直径 0.10 m
跨度 0.30 m
形状 Box
制造商 PYRAS
平台类型 Cubesat 3U
阶段状态 In Orbit
所有者/国家 TASA/PYRAS/J

大型星座

Loading constellations...